When you browse on this site, cookies collect data to enhance your experience and personalize the content and advertising you see.
Visit our Privacy Policy to learn more. By continuing to use the site, you agree to this use of cookies and data.
  • In Austria
  • List of Countries
  • For 7 days
  • Water Temperature
  • Weather Map
  • News
  • Weather Widgets
  • user-avatar
    Login

    Hourly Weather Borovaya

    Today, 19 September, Thursday

    Time Temperature Precipitation Wind Pressure Humidity
    00:00 +6°C° 0 mm 4 mps 745 mmHg 89%
    01:00 +5°C° 0 mm 4 mps 746 mmHg 92%
    02:00 +5°C° 0 mm 3 mps 746 mmHg 94%
    03:00 +5°C° 0 mm 3 mps 747 mmHg 94%
    04:00 +5°C° 0 mm 4 mps 747 mmHg 95%
    05:00 +5°C° 0 mm 4 mps 747 mmHg 95%
    06:00 +6°C° 0 mm 4 mps 748 mmHg 92%
    07:00 +6°C° 0 mm 4 mps 748 mmHg 90%
    08:00 +7°C° 0 mm 4 mps 748 mmHg 88%
    09:00 +7°C° 0 mm 4 mps 749 mmHg 85%
    10:00 +8°C° 0 mm 4 mps 749 mmHg 82%
    11:00 +8°C° 0 mm 4 mps 749 mmHg 79%
    12:00 +10°C° 0.1 mm 4 mps 749 mmHg 76%
    13:00 +10°C° 0.1 mm 4 mps 749 mmHg 73%
    14:00 +11°C° 0.1 mm 4 mps 749 mmHg 71%
    15:00 +11°C° 0.2 mm 3 mps 750 mmHg 74%
    16:00 +10°C° 0.2 mm 3 mps 750 mmHg 77%
    17:00 +10°C° 0.2 mm 3 mps 750 mmHg 80%
    18:00 +8°C° 0 mm 3 mps 750 mmHg 84%
    19:00 +7°C° 0 mm 2 mps 750 mmHg 89%
    20:00 +6°C° 0 mm 2 mps 750 mmHg 93%
    21:00 +6°C° 0 mm 2 mps 750 mmHg 93%
    22:00 +5°C° 0 mm 2 mps 750 mmHg 93%
    23:00 +5°C° 0 mm 2 mps 750 mmHg 93%

    Tomorrow, 20 September, Friday

    Time Temperature Precipitation Wind Pressure Humidity
    00:00 +5°C° 0 mm 2 mps 750 mmHg 93%
    01:00 +5°C° 0 mm 2 mps 750 mmHg 92%
    02:00 +4°C° 0 mm 2 mps 750 mmHg 92%
    03:00 +4°C° 0 mm 2 mps 750 mmHg 93%
    04:00 +4°C° 0 mm 2 mps 750 mmHg 93%
    05:00 +4°C° 0 mm 2 mps 750 mmHg 94%
    06:00 +5°C° 0 mm 2 mps 750 mmHg 91%
    07:00 +5°C° 0 mm 3 mps 749 mmHg 89%
    08:00 +7°C° 0 mm 3 mps 749 mmHg 86%
    09:00 +8°C° 0 mm 3 mps 750 mmHg 82%
    10:00 +8°C° 0 mm 4 mps 750 mmHg 78%
    11:00 +10°C° 0 mm 4 mps 750 mmHg 74%
    12:00 +9°C° 0.1 mm 5 mps 750 mmHg 75%
    13:00 +9°C° 0.1 mm 5 mps 750 mmHg 76%
    14:00 +8°C° 0.1 mm 5 mps 750 mmHg 77%
    15:00 +8°C° 0.2 mm 4 mps 750 mmHg 78%
    16:00 +8°C° 0.2 mm 4 mps 750 mmHg 78%
    17:00 +7°C° 0.2 mm 4 mps 750 mmHg 79%
    18:00 +6°C° 0 mm 4 mps 751 mmHg 83%
    19:00 +5°C° 0 mm 3 mps 751 mmHg 86%
    20:00 +4°C° 0 mm 3 mps 751 mmHg 90%
    21:00 +4°C° 0 mm 3 mps 752 mmHg 91%
    22:00 +3°C° 0 mm 3 mps 752 mmHg 92%
    23:00 +3°C° 0 mm 3 mps 752 mmHg 93%

    Day after tomorrow, 21 September, Saturday

    Time Temperature Precipitation Wind Pressure Humidity
    00:00 +2°C° 0 mm 3 mps 752 mmHg 93%
    01:00 +2°C° 0 mm 3 mps 752 mmHg 93%
    02:00 +1°C° 0 mm 3 mps 753 mmHg 93%
    03:00 +1°C° 0 mm 3 mps 753 mmHg 93%
    04:00 +1°C° 0 mm 3 mps 753 mmHg 92%
    05:00 +1°C° 0 mm 2 mps 753 mmHg 92%
    06:00 +2°C° 0 mm 2 mps 753 mmHg 87%
    07:00 +3°C° 0 mm 3 mps 753 mmHg 81%
    08:00 +4°C° 0 mm 3 mps 753 mmHg 76%
    09:00 +7°C° 0 mm 3 mps 753 mmHg 68%
    10:00 +8°C° 0 mm 4 mps 752 mmHg 60%
    11:00 +10°C° 0 mm 4 mps 752 mmHg 53%
    12:00 +8°C° 0.3 mm 5 mps 751 mmHg 63%
    13:00 +8°C° 0.3 mm 5 mps 751 mmHg 74%
    14:00 +7°C° 0.3 mm 5 mps 750 mmHg 84%
    15:00 +7°C° 0.6 mm 5 mps 750 mmHg 88%
    16:00 +7°C° 0.6 mm 5 mps 749 mmHg 91%
    17:00 +7°C° 0.6 mm 5 mps 748 mmHg 94%
    18:00 +8°C° 0.2 mm 5 mps 748 mmHg 94%
    19:00 +9°C° 0.2 mm 6 mps 748 mmHg 93%
    20:00 +10°C° 0.2 mm 6 mps 748 mmHg 93%
    21:00 +10°C° 0.1 mm 7 mps 748 mmHg 92%
    22:00 +10°C° 0.1 mm 7 mps 747 mmHg 92%
    23:00 +11°C° 0.1 mm 7 mps 747 mmHg 92%

    22 September, Sunday

    Time Temperature Precipitation Wind Pressure Humidity
    00:00 +10°C° 0 mm 7 mps 747 mmHg 91%
    01:00 +10°C° 0 mm 7 mps 747 mmHg 91%
    02:00 +10°C° 0 mm 7 mps 747 mmHg 91%
    03:00 +10°C° 0 mm 7 mps 747 mmHg 90%
    04:00 +10°C° 0 mm 7 mps 747 mmHg 90%
    05:00 +10°C° 0 mm 7 mps 747 mmHg 89%
    06:00 +10°C° 0 mm 7 mps 747 mmHg 87%
    07:00 +10°C° 0 mm 7 mps 747 mmHg 85%
    08:00 +11°C° 0 mm 8 mps 747 mmHg 83%
    09:00 +11°C° 0.1 mm 8 mps 747 mmHg 80%
    10:00 +11°C° 0.1 mm 8 mps 748 mmHg 77%
    11:00 +11°C° 0.1 mm 7 mps 748 mmHg 75%
    12:00 +11°C° 0 mm 7 mps 749 mmHg 65%
    13:00 +12°C° 0 mm 7 mps 749 mmHg 56%
    14:00 +12°C° 0 mm 7 mps 749 mmHg 46%
    15:00 +11°C° 0 mm 6 mps 750 mmHg 48%
    16:00 +10°C° 0 mm 5 mps 750 mmHg 50%
    17:00 +10°C° 0 mm 4 mps 750 mmHg 52%
    18:00 +9°C° 0 mm 3 mps 751 mmHg 57%
    19:00 +7°C° 0 mm 3 mps 751 mmHg 63%
    20:00 +6°C° 0 mm 2 mps 752 mmHg 68%
    21:00 +5°C° 0 mm 2 mps 752 mmHg 71%
    22:00 +4°C° 0 mm 2 mps 752 mmHg 73%
    23:00 +5°C° 0 mm 1 mps 753 mmHg 76%

    23 September, Monday

    Time Temperature Precipitation Wind Pressure Humidity
    00:00 +5°C° 0 mm 1 mps 753 mmHg 77%
    01:00 +4°C° 0 mm 1 mps 753 mmHg 78%
    02:00 +3°C° 0 mm 0 mps 753 mmHg 80%
    03:00 +3°C° 0 mm 0 mps 753 mmHg 80%
    04:00 +3°C° 0 mm 0 mps 753 mmHg 81%
    05:00 +3°C° 0 mm 0 mps 753 mmHg 81%
    06:00 +5°C° 0 mm 1 mps 753 mmHg 76%
    07:00 +6°C° 0 mm 1 mps 753 mmHg 71%
    08:00 +7°C° 0 mm 1 mps 753 mmHg 66%
    09:00 +8°C° 0 mm 2 mps 753 mmHg 59%
    10:00 +9°C° 0 mm 2 mps 753 mmHg 53%
    11:00 +12°C° 0 mm 2 mps 752 mmHg 47%
    12:00 +12°C° 0 mm 2 mps 752 mmHg 46%
    13:00 +12°C° 0 mm 3 mps 751 mmHg 46%
    14:00 +12°C° 0 mm 3 mps 750 mmHg 46%
    15:00 +12°C° 0 mm 3 mps 750 mmHg 48%
    16:00 +12°C° 0 mm 3 mps 749 mmHg 51%
    17:00 +11°C° 0 mm 3 mps 749 mmHg 53%
    18:00 +10°C° 0 mm 3 mps 748 mmHg 55%
    19:00 +9°C° 0 mm 3 mps 748 mmHg 57%
    20:00 +8°C° 0 mm 4 mps 748 mmHg 58%
    21:00 +7°C° 0 mm 4 mps 747 mmHg 60%
    22:00 +7°C° 0 mm 4 mps 747 mmHg 61%
    23:00 +6°C° 0 mm 4 mps 746 mmHg 63%

    24 September, Tuesday

    Time Temperature Precipitation Wind Pressure Humidity
    00:00 +6°C° 0 mm 4 mps 746 mmHg 64%
    01:00 +6°C° 0 mm 4 mps 745 mmHg 66%
    02:00 +5°C° 0 mm 3 mps 745 mmHg 68%
    03:00 +7°C° 0.1 mm 3 mps 744 mmHg 73%
    04:00 +7°C° 0.1 mm 3 mps 744 mmHg 78%
    05:00 +8°C° 0.1 mm 3 mps 743 mmHg 83%
    06:00 +8°C° 0.3 mm 3 mps 743 mmHg 86%
    07:00 +8°C° 0.3 mm 3 mps 743 mmHg 90%
    08:00 +8°C° 0.3 mm 3 mps 742 mmHg 93%
    09:00 +8°C° 0.1 mm 3 mps 742 mmHg 93%
    10:00 +9°C° 0.1 mm 3 mps 742 mmHg 93%
    11:00 +9°C° 0.1 mm 3 mps 742 mmHg 93%
    12:00 +9°C° 0 mm 2 mps 742 mmHg 92%
    13:00 +9°C° 0 mm 2 mps 742 mmHg 91%
    14:00 +9°C° 0 mm 2 mps 741 mmHg 89%
    15:00 +9°C° 0 mm 2 mps 742 mmHg 89%
    16:00 +9°C° 0 mm 3 mps 742 mmHg 89%
    17:00 +9°C° 0 mm 3 mps 742 mmHg 88%
    18:00 +8°C° 0 mm 3 mps 743 mmHg 89%
    19:00 +7°C° 0 mm 3 mps 743 mmHg 89%
    20:00 +7°C° 0 mm 3 mps 743 mmHg 90%
    21:00 +5°C° 0 mm 3 mps 743 mmHg 90%
    22:00 +5°C° 0 mm 4 mps 744 mmHg 91%
    23:00 +4°C° 0 mm 4 mps 744 mmHg 92%
    Show more